Time,TemperatureF,DewpointF,PressureIn,WindDirection,WindDirectionDegrees,WindSpeedMPH,WindSpeedGustMPH,Humidity,HourlyPrecipIn,Conditions,Clouds,dailyrainin,SolarRadiationWatts/m^2,SoftwareType,DateUTC
2013-07-12 00:02:00,53.0,25.0,-100.00,NNW,329,12.0,21.0,33,0.00,,,0.00,0.000000,,2013-07-12 07:02:00,
2013-07-12 00:12:00,53.0,25.0,-100.00,NNW,329,12.0,21.0,33,0.00,,,0.00,0.000000,,2013-07-12 07:12:00,
2013-07-12 00:22:00,53.0,25.0,-100.00,NNW,329,12.0,21.0,33,0.00,,,0.00,0.000000,,2013-07-12 07:22:00,
2013-07-12 00:32:00,53.0,25.0,-100.00,NNW,329,12.0,21.0,33,0.00,,,0.00,0.000000,,2013-07-12 07:32:00,
2013-07-12 01:01:00,53.0,20.0,-100.00,NNW,348,7.0,17.0,27,0.00,,,0.00,0.000000,,2013-07-12 08:01:00,
2013-07-12 01:11:00,53.0,20.0,-100.00,NNW,348,7.0,17.0,27,0.00,,,0.00,0.000000,,2013-07-12 08:11:00,
2013-07-12 01:21:00,53.0,20.0,-100.00,NNW,348,7.0,17.0,27,0.00,,,0.00,0.000000,,2013-07-12 08:21:00,
2013-07-12 01:32:00,53.0,20.0,-100.00,NNW,348,7.0,17.0,27,0.00,,,0.00,0.000000,,2013-07-12 08:32:00,
2013-07-12 02:12:00,53.0,16.0,-100.00,NNW,334,9.0,16.0,23,0.00,,,0.00,0.000000,,2013-07-12 09:12:00,
2013-07-12 02:22:00,53.0,16.0,-100.00,NNW,334,9.0,16.0,23,0.00,,,0.00,0.000000,,2013-07-12 09:22:00,
2013-07-12 03:01:00,48.0,33.0,-100.00,NNW,332,8.0,15.0,55,0.00,,,0.00,0.000000,,2013-07-12 10:01:00,
2013-07-12 03:11:00,48.0,33.0,-100.00,NNW,332,8.0,15.0,55,0.00,,,0.00,0.000000,,2013-07-12 10:11:00,
2013-07-12 03:22:00,48.0,33.0,-100.00,NNW,332,8.0,15.0,55,0.00,,,0.00,0.000000,,2013-07-12 10:22:00,
2013-07-12 03:33:00,48.0,33.0,-100.00,NNW,332,8.0,15.0,55,0.00,,,0.00,0.000000,,2013-07-12 10:33:00,
2013-07-12 04:02:00,53.0,22.0,-100.00,NW,309,8.0,15.0,30,0.00,,,0.00,0.000000,,2013-07-12 11:02:00,
2013-07-12 04:11:00,53.0,22.0,-100.00,NW,309,8.0,15.0,30,0.00,,,0.00,0.000000,,2013-07-12 11:11:00,
2013-07-12 04:22:00,53.0,22.0,-100.00,NW,309,8.0,15.0,30,0.00,,,0.00,0.000000,,2013-07-12 11:22:00,
2013-07-12 04:32:00,53.0,22.0,-100.00,NW,309,8.0,15.0,30,0.00,,,0.00,0.000000,,2013-07-12 11:32:00,
2013-07-12 04:53:00,51.0,21.0,-100.00,NNW,328,6.0,15.0,30,0.00,,,0.00,0.000000,,2013-07-12 11:53:00,
2013-07-12 05:01:00,51.0,21.0,-100.00,NNW,328,6.0,15.0,30,0.00,,,0.00,0.000000,,2013-07-12 12:01:00,
2013-07-12 05:11:00,51.0,21.0,-100.00,NNW,328,6.0,15.0,30,0.00,,,0.00,0.000000,,2013-07-12 12:11:00,
2013-07-12 05:22:00,51.0,21.0,-100.00,NNW,328,6.0,15.0,30,0.00,,,0.00,0.000000,,2013-07-12 12:22:00,
2013-07-12 05:32:00,51.0,21.0,-100.00,NNW,328,6.0,15.0,30,0.00,,,0.00,0.000000,,2013-07-12 12:32:00,
2013-07-12 05:52:00,49.0,25.0,-100.00,NNW,339,9.0,15.0,39,0.00,,,0.00,1.000000,,2013-07-12 12:52:00,
2013-07-12 06:01:00,49.0,25.0,-100.00,NNW,339,9.0,15.0,39,0.00,,,0.00,1.000000,,2013-07-12 13:01:00,
2013-07-12 06:12:00,49.0,25.0,-100.00,NNW,339,9.0,15.0,39,0.00,,,0.00,1.000000,,2013-07-12 13:12:00,
2013-07-12 06:22:00,49.0,25.0,-100.00,NNW,339,9.0,15.0,39,0.00,,,0.00,1.000000,,2013-07-12 13:22:00,
2013-07-12 06:32:00,49.0,25.0,-100.00,NNW,339,9.0,15.0,39,0.00,,,0.00,1.000000,,2013-07-12 13:32:00,
2013-07-12 07:02:00,52.0,25.0,-100.00,North,356,7.0,17.0,34,0.00,,,0.00,37.000000,,2013-07-12 14:02:00,
2013-07-12 07:11:00,52.0,25.0,-100.00,North,356,7.0,17.0,34,0.00,,,0.00,37.000000,,2013-07-12 14:11:00,
2013-07-12 07:22:00,52.0,25.0,-100.00,North,356,7.0,17.0,34,0.00,,,0.00,37.000000,,2013-07-12 14:22:00,
2013-07-12 07:32:00,52.0,25.0,-100.00,North,356,7.0,17.0,34,0.00,,,0.00,37.000000,,2013-07-12 14:32:00,
2013-07-12 08:01:00,53.0,25.0,-100.00,NNW,327,8.0,14.0,34,0.00,,,0.00,145.000000,,2013-07-12 15:01:00,
2013-07-12 08:11:00,53.0,25.0,-100.00,NNW,327,8.0,14.0,34,0.00,,,0.00,145.000000,,2013-07-12 15:11:00,
2013-07-12 08:22:00,53.0,25.0,-100.00,NNW,327,8.0,14.0,34,0.00,,,0.00,145.000000,,2013-07-12 15:22:00,
2013-07-12 08:33:00,53.0,25.0,-100.00,NNW,327,8.0,14.0,34,0.00,,,0.00,145.000000,,2013-07-12 15:33:00,
2013-07-12 09:01:00,58.0,22.0,-100.00,WNW,287,5.0,14.0,25,0.00,,,0.00,400.000000,,2013-07-12 16:01:00,
2013-07-12 09:11:00,58.0,22.0,-100.00,WNW,287,5.0,14.0,25,0.00,,,0.00,400.000000,,2013-07-12 16:11:00,
2013-07-12 09:22:00,58.0,22.0,-100.00,WNW,287,5.0,14.0,25,0.00,,,0.00,400.000000,,2013-07-12 16:22:00,
2013-07-12 09:32:00,58.0,22.0,-100.00,WNW,287,5.0,14.0,25,0.00,,,0.00,400.000000,,2013-07-12 16:32:00,
2013-07-12 09:58:00,61.0,24.0,-100.00,WSW,250,6.0,14.0,24,0.00,,,0.00,576.000000,,2013-07-12 16:58:00,
2013-07-12 10:12:00,61.0,24.0,-100.00,WSW,250,6.0,14.0,24,0.00,,,0.00,576.000000,,2013-07-12 17:12:00,
2013-07-12 10:22:00,61.0,24.0,-100.00,WSW,250,6.0,14.0,24,0.00,,,0.00,576.000000,,2013-07-12 17:22:00,
2013-07-12 10:33:00,61.0,24.0,-100.00,WSW,250,6.0,14.0,24,0.00,,,0.00,576.000000,,2013-07-12 17:33:00,
2013-07-12 11:04:00,64.0,24.0,-100.00,SSW,206,4.0,11.0,22,0.00,,,0.00,729.000000,,2013-07-12 18:04:00,
2013-07-12 11:12:00,64.0,24.0,-100.00,SSW,206,4.0,11.0,22,0.00,,,0.00,729.000000,,2013-07-12 18:12:00,
2013-07-12 11:23:00,64.0,24.0,-100.00,SSW,206,4.0,11.0,22,0.00,,,0.00,729.000000,,2013-07-12 18:23:00,
2013-07-12 11:33:00,64.0,24.0,-100.00,SSW,206,4.0,11.0,22,0.00,,,0.00,729.000000,,2013-07-12 18:33:00,
2013-07-12 11:56:00,67.0,21.0,-100.00,WNW,300,5.0,15.0,17,0.00,,,0.00,848.000000,,2013-07-12 18:56:00,
2013-07-12 12:03:00,67.0,21.0,-100.00,WNW,300,5.0,15.0,17,0.00,,,0.00,848.000000,,2013-07-12 19:03:00,
2013-07-12 12:13:00,67.0,21.0,-100.00,WNW,300,5.0,15.0,17,0.00,,,0.00,848.000000,,2013-07-12 19:13:00,
2013-07-12 12:22:00,67.0,21.0,-100.00,WNW,300,5.0,15.0,17,0.00,,,0.00,848.000000,,2013-07-12 19:22:00,
2013-07-12 12:32:00,67.0,21.0,-100.00,WNW,300,5.0,15.0,17,0.00,,,0.00,848.000000,,2013-07-12 19:32:00,
2013-07-12 13:02:00,69.0,22.0,-100.00,WNW,282,7.0,14.0,17,0.00,,,0.00,924.000000,,2013-07-12 20:02:00,
2013-07-12 13:12:00,69.0,22.0,-100.00,WNW,282,7.0,14.0,17,0.00,,,0.00,924.000000,,2013-07-12 20:12:00,
2013-07-12 13:22:00,69.0,22.0,-100.00,WNW,282,7.0,14.0,17,0.00,,,0.00,924.000000,,2013-07-12 20:22:00,
2013-07-12 13:33:00,69.0,22.0,-100.00,WNW,282,7.0,14.0,17,0.00,,,0.00,924.000000,,2013-07-12 20:33:00,
2013-07-12 14:02:00,70.0,23.0,-100.00,West,270,8.0,15.0,17,0.00,,,0.00,948.000000,,2013-07-12 21:02:00,
2013-07-12 14:14:00,70.0,23.0,-100.00,West,270,8.0,15.0,17,0.00,,,0.00,948.000000,,2013-07-12 21:14:00,
2013-07-12 14:23:00,70.0,23.0,-100.00,West,270,8.0,15.0,17,0.00,,,0.00,948.000000,,2013-07-12 21:23:00,
2013-07-12 14:33:00,70.0,23.0,-100.00,West,270,8.0,15.0,17,0.00,,,0.00,948.000000,,2013-07-12 21:33:00,
2013-07-12 15:02:00,71.0,25.0,-100.00,WNW,294,7.0,14.0,18,0.00,,,0.00,947.000000,,2013-07-12 22:02:00,
2013-07-12 15:22:00,71.0,25.0,-100.00,WNW,294,7.0,14.0,18,0.00,,,0.00,947.000000,,2013-07-12 22:22:00,
2013-07-12 15:32:00,71.0,25.0,-100.00,WNW,294,7.0,14.0,18,0.00,,,0.00,947.000000,,2013-07-12 22:32:00,
2013-07-12 15:55:00,72.0,32.0,-100.00,NW,305,7.0,17.0,23,0.00,,,0.00,914.000000,,2013-07-12 22:55:00,
2013-07-12 16:03:00,72.0,32.0,-100.00,NW,305,7.0,17.0,23,0.00,,,0.00,914.000000,,2013-07-12 23:03:00,
2013-07-12 16:22:00,72.0,32.0,-100.00,NW,305,7.0,17.0,23,0.00,,,0.00,914.000000,,2013-07-12 23:22:00,
2013-07-12 16:32:00,72.0,32.0,-100.00,NW,305,7.0,17.0,23,0.00,,,0.00,914.000000,,2013-07-12 23:32:00,
2013-07-12 16:57:00,69.0,35.0,-100.00,NW,313,9.0,16.0,29,0.00,,,0.00,749.000000,,2013-07-12 23:57:00,
2013-07-12 17:03:00,69.0,35.0,-100.00,NW,313,9.0,16.0,29,0.00,,,0.00,749.000000,,2013-07-13 00:03:00,
2013-07-12 17:14:00,69.0,35.0,-100.00,NW,313,9.0,16.0,29,0.00,,,0.00,749.000000,,2013-07-13 00:14:00,
2013-07-12 17:23:00,69.0,35.0,-100.00,NW,313,9.0,16.0,29,0.00,,,0.00,749.000000,,2013-07-13 00:23:00,
2013-07-12 17:32:00,69.0,35.0,-100.00,NW,313,9.0,16.0,29,0.00,,,0.00,749.000000,,2013-07-13 00:32:00,
2013-07-12 18:02:00,66.0,37.0,-100.00,NW,312,11.0,23.0,34,0.00,,,0.00,574.000000,,2013-07-13 01:02:00,
2013-07-12 18:11:00,66.0,37.0,-100.00,NW,312,11.0,23.0,34,0.00,,,0.00,574.000000,,2013-07-13 01:11:00,
2013-07-12 18:22:00,66.0,37.0,-100.00,NW,312,11.0,23.0,34,0.00,,,0.00,574.000000,,2013-07-13 01:22:00,
2013-07-12 18:32:00,66.0,37.0,-100.00,NW,312,11.0,23.0,34,0.00,,,0.00,574.000000,,2013-07-13 01:32:00,
2013-07-12 18:56:00,65.0,36.0,-100.00,WNW,301,10.0,25.0,34,0.00,,,0.00,412.000000,,2013-07-13 01:56:00,
2013-07-12 19:04:00,65.0,36.0,-100.00,WNW,301,10.0,25.0,34,0.00,,,0.00,412.000000,,2013-07-13 02:04:00,
2013-07-12 19:22:00,65.0,36.0,-100.00,WNW,301,10.0,25.0,34,0.00,,,0.00,412.000000,,2013-07-13 02:22:00,
2013-07-12 19:55:00,61.0,32.0,-100.00,NW,316,7.0,20.0,34,0.00,,,0.00,147.000000,,2013-07-13 02:55:00,
2013-07-12 20:04:00,61.0,32.0,-100.00,NW,316,7.0,20.0,34,0.00,,,0.00,147.000000,,2013-07-13 03:04:00,
2013-07-12 20:12:00,61.0,32.0,-100.00,NW,316,7.0,20.0,34,0.00,,,0.00,147.000000,,2013-07-13 03:12:00,
2013-07-12 20:23:00,61.0,32.0,-100.00,NW,316,7.0,20.0,34,0.00,,,0.00,147.000000,,2013-07-13 03:23:00,
2013-07-12 20:33:00,61.0,32.0,-100.00,NW,316,7.0,20.0,34,0.00,,,0.00,147.000000,,2013-07-13 03:33:00,
2013-07-12 20:57:00,57.0,36.0,-100.00,NNW,334,6.0,17.0,45,0.00,,,0.00,75.000000,,2013-07-13 03:57:00,
2013-07-12 21:01:00,57.0,36.0,-100.00,NNW,334,6.0,17.0,45,0.00,,,0.00,75.000000,,2013-07-13 04:01:00,
2013-07-12 21:11:00,57.0,36.0,-100.00,NNW,334,6.0,17.0,45,0.00,,,0.00,75.000000,,2013-07-13 04:11:00,
2013-07-12 21:22:00,57.0,36.0,-100.00,NNW,334,6.0,17.0,45,0.00,,,0.00,75.000000,,2013-07-13 04:22:00,
2013-07-12 21:32:00,57.0,36.0,-100.00,NNW,334,6.0,17.0,45,0.00,,,0.00,75.000000,,2013-07-13 04:32:00,
2013-07-12 22:01:00,52.0,37.0,-100.00,NNW,331,11.0,22.0,56,0.00,,,0.00,8.000000,,2013-07-13 05:01:00,
2013-07-12 22:11:00,52.0,37.0,-100.00,NNW,331,11.0,22.0,56,0.00,,,0.00,8.000000,,2013-07-13 05:11:00,
2013-07-12 22:21:00,52.0,37.0,-100.00,NNW,331,11.0,22.0,56,0.00,,,0.00,8.000000,,2013-07-13 05:21:00,
2013-07-12 22:32:00,52.0,37.0,-100.00,NNW,331,11.0,22.0,56,0.00,,,0.00,8.000000,,2013-07-13 05:32:00,
2013-07-12 22:52:00,50.0,38.0,-100.00,NNW,337,14.0,24.0,62,0.00,,,0.00,0.000000,,2013-07-13 05:52:00,
2013-07-12 23:01:00,50.0,38.0,-100.00,NNW,337,14.0,24.0,62,0.00,,,0.00,0.000000,,2013-07-13 06:01:00,
2013-07-12 23:11:00,50.0,38.0,-100.00,NNW,337,14.0,24.0,62,0.00,,,0.00,0.000000,,2013-07-13 06:11:00,
2013-07-12 23:22:00,50.0,38.0,-100.00,NNW,337,14.0,24.0,62,0.00,,,0.00,0.000000,,2013-07-13 06:22:00,
2013-07-12 23:32:00,50.0,38.0,-100.00,NNW,337,14.0,24.0,62,0.00,,,0.00,0.000000,,2013-07-13 06:32:00,
2013-07-12 23:52:00,49.0,37.0,-100.00,North,356,7.0,24.0,63,0.00,,,0.00,0.000000,,2013-07-13 06:52:00,